Regional Weather Roundup
Issued by NWS

Home | Current Version | Previous Version | Text Only | Print | Product List | Glossary On
Versions: 1 2 3 4 5 6 7 8 9 10 11 12 13 14 15 16 17 18 19 20 21 22 23 24 25 26 27 28 29 30 31 32 33 34 35 36 37 38 39 40 41 42 43 44 45 46 47 48 49 50
000
ASUS44 KOUN 192010
RWROK

WEATHER ROUNDUP FOR OKLAHOMA
NATIONAL WEATHER SERVICE NORMAN OK
200 PM CST SUN NOV 19 2017

NOTE: "FAIR" INDICATES FEW OR NO CLOUDS BELOW 12,000 FEET WITH NO
      SIGNIFICANT WEATHER AND/OR OBSTRUCTIONS TO VISIBILITY.

OKZ001>007-009>012-014-015-017-192100-
NORTHWEST OKLAHOMA AND THE PANHANDLE

CITY           SKY/WX    TMP DP  RH WIND       PRES   REMARKS
GAGE           SUNNY     63  15  15 SW22G28   30.16F
GUYMON         SUNNY     64  17  16 SW22G29   30.10F
ENID/WOODRING  MOSUNNY   63  27  25 S17       30.20F
$$

OKZ016-021>023-033>039-044-045-192100-
SOUTHWEST OKLAHOMA

CITY           SKY/WX    TMP DP  RH WIND       PRES   REMARKS
LAWTON/REGL    SUNNY     61  22  22 S9        30.26F
LAWTON/FT SILL SUNNY     61  28  29 SW6       30.25F
FREDERICK      SUNNY     61  20  20 SW6       30.24F
CLINTON        SUNNY     59  17  19 S18G25    30.23F
HOBART         SUNNY     61  19  19 SW13G23   30.25F
ALTUS AFB      SUNNY     62  15  16 S15G21    30.25F
$$

OKZ018>020-024>031-192100-
CENTRAL OKLAHOMA

CITY           SKY/WX    TMP DP  RH WIND       PRES   REMARKS
OKLAHOMA CITY  MOSUNNY   58  20  22 S8        30.24F
OKC/WILEY POST SUNNY     59  24  26 S10       30.24F
OKC/TINKER AFB SUNNY     59  24  25 S9        30.23F
STILLWATER     SUNNY     60  21  22 SW9       30.23F
GUTHRIE        SUNNY     59  24  26 SW6       30.23F
$$

OKZ008-013-054>072-192100-
NORTHEAST OKLAHOMA

CITY           SKY/WX    TMP DP  RH WIND       PRES   REMARKS
TULSA          MOSUNNY   58  27  30 S7        30.25F
TULSA/JONES    SUNNY     59  24  26 VRB3      30.25F
PONCA CITY     SUNNY     58  22  24 SW13      30.21F
BARTLESVILLE   SUNNY     58  24  27 VRB6      30.24F
MUSKOGEE       SUNNY     58  27  30 VRB3      30.28F
$$

OKZ032-040>043-046>053-073>077-192100-
SOUTH CENTRAL/SOUTHEAST OKLAHOMA

CITY           SKY/WX    TMP DP  RH WIND       PRES   REMARKS
ARDMORE/DWNTWN SUNNY     59  19  21 CALM      30.27F
MCALESTER      PTSUNNY   60  25  26 VRB3      30.27F
$$




USA.gov is the U.S. government's official web portal to all federal, state and local government web resources and services.